{"data":{"norad_id":58745,"intl_designator":"2024-005T","name":"STARLINK-31176","alt_names":[],"object_type":"PAYLOAD","status":"ACTIVE","operator":null,"country":"US","launch_date":"2024-01-07","launch_site_code":"AFETR","launch_vehicle":null,"mission":null,"orbit_class":"UNKNOWN","rcs_meters":null,"size_class":null,"mass_kg":null,"dimensions":null,"purposes":["comms"],"wikipedia_slug":null,"has_3d_model":false,"image_url":null,"decayed_at":null,"tle_current":{"epoch":"2026-09-19T13:34:46.880832Z","epoch_age_seconds":233189,"freshness":"STALE","line1":"1 58745U 24005T   26262.56582038  .00000222  00000+0  17604-4 0  9992","line2":"2 58745  43.0051 204.9247 0001235 266.6128  93.4583 15.27574299150137","mean_motion":15.27574299,"eccentricity":0.0001235,"inclination_deg":43.0051,"raan_deg":204.9247,"arg_perigee_deg":266.6128,"mean_anomaly_deg":93.4583,"bstar":1.7604e-5,"rev_number":15013,"period_min":94.267100522879,"perigee_km":482.21880834655,"apogee_km":483.91352552878,"semimajor_km":6861.2031669377,"source":"CELESTRAK","updated_at":"2026-09-21T09:00:33.954822Z"}}}